CST,Max TemperatureF,Mean TemperatureF,Min TemperatureF,Max Dew PointF,MeanDew PointF,Min DewpointF,Max Humidity, Mean Humidity, Min Humidity, Max Sea Level PressureIn, Mean Sea Level PressureIn, Min Sea Level PressureIn, Max VisibilityMiles, Mean VisibilityMiles, Min VisibilityMiles, Max Wind SpeedMPH, Mean Wind SpeedMPH, Max Gust SpeedMPH,PrecipitationIn, CloudCover, Events, WindDirDegrees
2013-1-1,78,66,53,64,58,51,97,83,69,30.08,29.98,29.89,10,7,0,22,12,30,0.24,6,Fog-Rain,260
2013-1-2,53,49,44,50,44,41,93,87,80,30.24,30.15,30.07,10,9,7,16,11,23,0.05,8,Rain,353
2013-1-3,49,45,41,41,35,27,89,68,46,30.38,30.28,30.19,10,8,5,20,13,23,0.24,3,Rain,11
2013-1-4,56,49,41,42,33,29,66,51,35,30.44,30.37,30.33,10,10,10,17,8,22,0.00,2,,29
2013-1-5,53,50,46,45,39,35,77,67,56,30.35,30.28,30.21,10,10,2,15,9,18,T,4,Rain,58
2013-1-6,52,49,46,47,44,39,93,78,63,30.28,30.23,30.15,10,8,2,22,11,26,0.68,7,Rain,29
2013-1-7,57,51,45,47,42,39,89,72,55,30.31,30.24,30.17,10,10,10,17,9,23,0.00,3,,73
2013-1-8,61,56,51,57,53,44,93,82,71,30.21,30.13,30.07,10,5,1,17,10,25,0.59,7,Rain,86
2013-1-9,66,63,60,63,60,55,88,86,82,30.18,30.13,30.06,7,2,0,17,13,24,0.44,8,Fog-Rain,101
2013-1-10,70,67,63,67,62,58,97,92,87,30.16,30.10,29.99,10,4,0,23,11,26,1.70,7,Fog-Rain,119
2013-1-11,75,70,64,70,67,62,100,92,84,30.11,30.05,30.00,10,6,0,20,9,25,0.03,7,Fog-Rain,168
2013-1-12,78,73,68,70,68,64,100,84,67,30.07,30.00,29.92,10,4,0,20,11,24,0.00,5,Fog,152
2013-1-13,77,65,52,70,63,51,100,91,82,30.05,29.96,29.88,10,7,2,23,14,32,0.98,8,Rain,214
2013-1-14,53,48,43,52,48,41,100,93,86,30.13,30.08,30.03,10,4,0,22,12,36,0.23,8,Fog-Rain,17
2013-1-15,52,50,47,54,49,45,100,93,86,30.08,30.01,29.94,10,3,0,14,8,17,0.03,8,Fog-Rain,14
2013-1-16,47,43,39,46,41,37,100,93,85,30.15,30.06,29.97,10,7,1,22,13,25,0.34,8,Fog-Rain,329
2013-1-17,53,46,38,39,37,35,85,66,46,30.41,30.27,30.14,10,10,7,22,13,26,T,3,Rain,321
2013-1-18,55,48,40,39,37,34,89,70,50,30.52,30.44,30.38,10,10,9,20,9,25,0.00,0,,57
2013-1-19,65,52,39,49,44,39,89,69,48,30.38,30.30,30.25,10,10,8,12,6,14,0.00,1,,79
2013-1-20,64,53,41,51,48,45,100,74,48,30.29,30.22,30.14,10,5,0,10,3,17,0.00,0,Fog,309
2013-1-21,65,55,44,51,48,46,100,72,44,30.22,30.18,30.13,10,8,5,10,3,23,0.00,0,,297
2013-1-22,62,55,47,47,39,33,86,65,43,30.35,30.30,30.21,10,10,10,16,7,20,0.00,0,,97
2013-1-23,70,57,44,54,48,44,93,67,40,30.40,30.33,30.29,10,9,4,13,5,16,0.00,0,,176
2013-1-24,73,61,48,56,52,48,100,75,49,30.35,30.28,30.22,10,8,2,16,6,18,0.00,1,,206
2013-1-25,75,64,52,57,55,51,93,75,57,30.26,30.20,30.14,10,9,4,18,8,22,0.00,1,,197
2013-1-26,74,63,51,60,57,54,100,81,61,30.27,30.21,30.18,10,6,0,10,3,10,0.00,1,Fog,200
2013-1-27,74,64,54,61,58,55,100,81,61,30.27,30.23,30.19,10,6,1,15,7,21,0.00,1,,117
2013-1-28,77,66,55,66,61,57,93,79,64,30.24,30.17,30.11,10,6,2,15,8,20,0.00,4,,121
2013-1-29,78,73,67,70,67,63,100,87,74,30.11,29.98,29.80,10,8,2,24,13,31,0.07,7,Rain,156
2013-1-30,74,61,48,69,53,33,93,66,39,30.18,29.83,29.66,10,9,1,29,17,38,0.79,6,Rain,268
2013-1-31,60,49,37,37,31,26,76,51,25,30.34,30.26,30.18,10,10,10,18,7,24,0.00,0,,282